FLOCK 2K-18 (42887 NORAD) Tracking and Keplerian Element Data

This shows tracking and keplerian element data for the satellite.

Feedback or suggestion? Click here.




ElementValue
Catalog42887
NameFLOCK 2K-18
Epoch Orbit27875
Epoch Day179.05055507
Epoch Year2022
RAAN20.4753
Inclination96.8033
Eccentricity0.000575
Argument of Perigee202.2153
Mean Anonmoly157.8877
Mean Motion15.98426269
Decay Rate0.00633736
L11 42887U 17042BQ 22179.05055507 .00633736 17766-3 13683-2 0 9992
L22 42887 96.8033 20.4753 0005750 202.2153 157.8877 15.98426269278757



Live tracking and technical data element details for FLOCK 2K-18 (NORAD 42887). FLOCK 2K-18 can be tracked NOW for your location showing map with azimuth and elevation plus other details from your city location.







IsCatalogInMostPopularTable: catalog: 42887, numindb: 631
Update: records affected: 1



GetName: 42887 FLOCK 2K-18

Hit Count: updated at: Sun, 23 Jun 2024 02:06:53 GMT